Weather History for Wildwood, NJ

Change the Weather History Date:

Saturday, February 2, 2013

  Actual Average Record
Temperature  
Mean Temperature 26 °F -  
Max Temperature 30 °F 39 °F 57 °F (2011)
Min Temperature 21 °F 27 °F 17 °F (2004)
Degree Days  
Heating Degree Days 40    
Moisture  
Dew Point 12 °F    
Average Humidity 58    
Maximum Humidity 86    
Minimum Humidity 46    
Precipitation  
Precipitation 0.00 in - - ()
Sea Level Pressure  
Sea Level Pressure 30.26 in    
Wind  
Wind Speed 9 mph (WSW)    
Max Wind Speed 15 mph    
Max Gust Speed 25 mph    
Visibility 9 miles    
Events      
Averages and records for this station are not official NWS values.
T = Trace of Precipitation, MM = Missing Value Source: NWS Daily Summary

Daily Weather History Graph

Daily Weather History Graph

Search for Another Location

Airport:

Trip Planner

Search our weather history database for the weather conditions in past years. The results will help you decide how hot, cold, wet, or windy it might be!

Date:

Astronomy

Feb. 02, 2013 Rise Set
Actual Time 7:04 AM EST 5:22 PM EST
Civil Twilight 6:36 AM EST 5:50 PM EST
Nautical Twilight 6:05 AM EST 6:22 PM EST
Astronomical Twilight 5:33 AM EST 6:53 PM EST
Moon No Moon Rise 10:17 AM EST (2/2)
Length of Visible Light 11h 13m
Length of Day
10h 17m
Waning Gibbous, 60% of the Moon is Illuminated
Feb 2
Waning Gibbous
Feb 3
Last Quarter
Feb 10
New
Feb 17
First Quarter
Feb 25
Full

Hourly Weather History & Observations

Time (EST) Temp. Windchill Dew Point Humidity Pressure Visibility Wind Dir Wind Speed Gust Speed Precip Events Conditions
12:15 AM 23.0 °F 10.1 °F 6.8 °F 50% 30.33 in 10.0 mi WNW 15.0 mph 25.3 mph N/A   Clear
12:35 AM 23.0 °F 11.7 °F 5.0 °F 46% 30.33 in 10.0 mi WNW 11.5 mph 19.6 mph N/A   Clear
12:55 AM 23.0 °F 11.1 °F 6.8 °F 50% 30.34 in 10.0 mi WNW 12.7 mph 19.6 mph N/A   Clear
1:15 AM 23.0 °F 11.1 °F 6.8 °F 50% 30.34 in 10.0 mi WNW 12.7 mph 18.4 mph N/A   Clear
1:35 AM 21.2 °F 8.3 °F 6.8 °F 54% 30.35 in 10.0 mi WNW 13.8 mph 18.4 mph N/A   Clear
1:55 AM 21.2 °F 10.1 °F 6.8 °F 54% 30.36 in 10.0 mi WNW 10.4 mph - N/A   Clear
2:15 AM 21.2 °F 9.5 °F 5.0 °F 50% 30.37 in 10.0 mi WNW 11.5 mph 18.4 mph N/A   Clear
2:35 AM 21.2 °F 9.5 °F 6.8 °F 54% 30.37 in 10.0 mi WNW 11.5 mph 17.3 mph N/A   Clear
2:55 AM 21.2 °F 10.9 °F 6.8 °F 54% 30.36 in 10.0 mi WNW 9.2 mph 16.1 mph N/A   Clear
3:15 AM 21.2 °F 10.1 °F 6.8 °F 54% 30.34 in 10.0 mi NW 10.4 mph - N/A   Clear
3:35 AM 21.2 °F 12.6 °F 6.8 °F 54% 30.34 in 10.0 mi NW 6.9 mph - N/A   Clear
3:55 AM 21.2 °F 10.9 °F 6.8 °F 54% 30.34 in 10.0 mi NW 9.2 mph - N/A   Clear
4:15 AM 21.2 °F 10.9 °F 6.8 °F 54% 30.34 in 10.0 mi NW 9.2 mph - N/A   Clear
4:35 AM 21.2 °F 11.7 °F 6.8 °F 54% 30.34 in 10.0 mi WNW 8.1 mph - N/A   Clear
4:55 AM 21.2 °F 16.4 °F 6.8 °F 54% 30.35 in 10.0 mi NW 3.5 mph - N/A   Clear
5:15 AM 21.2 °F 16.4 °F 8.6 °F 58% 30.35 in 10.0 mi NW 3.5 mph - N/A   Clear
5:35 AM 21.2 °F 14.9 °F 8.6 °F 58% 30.35 in 10.0 mi NW 4.6 mph - N/A   Clear
5:55 AM 21.2 °F 13.6 °F 8.6 °F 58% 30.35 in 10.0 mi NW 5.8 mph - N/A   Clear
6:15 AM 21.2 °F 13.6 °F 8.6 °F 58% 30.35 in 10.0 mi NW 5.8 mph - N/A   Clear
6:35 AM 21.2 °F 13.6 °F 8.6 °F 58% 30.36 in 10.0 mi WNW 5.8 mph - N/A   Clear
7:15 AM 21.2 °F 12.6 °F 8.6 °F 58% 30.37 in 10.0 mi WNW 6.9 mph - N/A   Clear
7:35 AM 21.2 °F 10.9 °F 8.6 °F 58% 30.37 in 10.0 mi West 9.2 mph - N/A   Clear
7:55 AM 21.2 °F 11.7 °F 8.6 °F 58% 30.37 in 10.0 mi West 8.1 mph - N/A   Clear
8:15 AM 21.2 °F 12.6 °F 6.8 °F 54% 30.37 in 10.0 mi West 6.9 mph - N/A   Clear
8:35 AM 21.2 °F 12.6 °F 8.6 °F 58% 30.37 in 10.0 mi WNW 6.9 mph - N/A   Clear
8:55 AM 21.2 °F 11.7 °F 8.6 °F 58% 30.37 in 10.0 mi West 8.1 mph - N/A   Clear
9:15 AM 23.0 °F 14.7 °F 8.6 °F 54% 30.37 in 10.0 mi West 6.9 mph - N/A   Clear
9:35 AM 23.0 °F 13.9 °F 8.6 °F 54% 30.37 in 10.0 mi West 8.1 mph - N/A   Clear
9:55 AM 23.0 °F 14.7 °F 8.6 °F 54% 30.36 in 10.0 mi West 6.9 mph - N/A   Clear
10:15 AM 24.8 °F 15.3 °F 8.6 °F 50% 30.36 in 10.0 mi WSW 9.2 mph - N/A   Clear
10:35 AM 24.8 °F 14.6 °F 8.6 °F 50% 30.35 in 10.0 mi West 10.4 mph - N/A   Clear
10:55 AM 24.8 °F 14.6 °F 10.4 °F 54% 30.34 in 10.0 mi WSW 10.4 mph - N/A   Clear
11:15 AM 24.8 °F 16.1 °F 10.4 °F 54% 30.33 in 10.0 mi WSW 8.1 mph - N/A   Clear
11:35 AM 24.8 °F 15.3 °F 10.4 °F 54% 30.33 in 10.0 mi WSW 9.2 mph - N/A   Clear
11:55 AM 24.8 °F 15.3 °F 8.6 °F 50% 30.32 in 10.0 mi West 9.2 mph - N/A   Clear
12:15 PM 24.8 °F 14.0 °F 8.6 °F 50% 30.31 in 10.0 mi WSW 11.5 mph - N/A   Clear
12:35 PM 24.8 °F 14.0 °F 10.4 °F 54% 30.29 in 10.0 mi SW 11.5 mph - N/A   Clear
12:55 PM 26.6 °F 17.5 °F 12.2 °F 55% 30.27 in 10.0 mi West 9.2 mph - N/A   Clear
1:15 PM 26.6 °F 19.1 °F 10.4 °F 51% 30.26 in 10.0 mi West 6.9 mph - N/A   Clear
1:35 PM 26.6 °F 17.5 °F 10.4 °F 51% 30.25 in 10.0 mi WSW 9.2 mph - N/A   Clear
1:55 PM 26.6 °F 18.2 °F 10.4 °F 51% 30.24 in 10.0 mi West 8.1 mph - N/A   Clear
2:15 PM 26.6 °F 19.1 °F 8.6 °F 47% 30.23 in 10.0 mi SW 6.9 mph - N/A   Clear
2:35 PM 26.6 °F - 10.4 °F 51% 30.22 in 10.0 mi Calm Calm - N/A   Clear
2:55 PM 28.4 °F 23.3 °F 10.4 °F 47% 30.21 in - SSW 4.6 mph - N/A   Clear
3:15 PM 28.4 °F 21.2 °F 12.2 °F 51% 30.21 in 10.0 mi South 6.9 mph - N/A   Clear
3:35 PM 28.4 °F 20.4 °F 10.4 °F 47% 30.20 in 10.0 mi South 8.1 mph - N/A   Clear
3:55 PM 28.4 °F 20.4 °F 10.4 °F 47% 30.20 in 10.0 mi South 8.1 mph - N/A   Clear
4:15 PM 28.4 °F 22.2 °F 10.4 °F 47% 30.19 in 10.0 mi South 5.8 mph - N/A   Clear
4:35 PM 28.4 °F 22.2 °F 10.4 °F 47% 30.18 in 10.0 mi South 5.8 mph - N/A   Clear
4:55 PM 28.4 °F 20.4 °F 12.2 °F 51% 30.16 in 10.0 mi South 8.1 mph - N/A   Clear
5:15 PM 28.4 °F 21.2 °F 14.0 °F 55% 30.15 in 10.0 mi South 6.9 mph - N/A   Clear
5:35 PM 30.2 °F 21.3 °F 14.0 °F 51% 30.14 in 10.0 mi SSW 10.4 mph - N/A   Clear
5:55 PM 28.4 °F 19.7 °F 12.2 °F 51% 30.15 in 10.0 mi SSW 9.2 mph - N/A   Clear
6:15 PM 28.4 °F 19.7 °F 12.2 °F 51% 30.15 in 10.0 mi SSW 9.2 mph - N/A   Partly Cloudy
6:35 PM 28.4 °F 18.5 °F 12.2 °F 51% 30.15 in 10.0 mi SSW 11.5 mph - N/A   Mostly Cloudy
6:55 PM 30.2 °F 22.6 °F 12.2 °F 47% 30.14 in 10.0 mi SSW 8.1 mph - N/A   Overcast
7:15 PM 30.2 °F 23.4 °F 14.0 °F 51% 30.12 in 10.0 mi South 6.9 mph - N/A   Overcast
7:35 PM 30.2 °F 19.8 °F 15.8 °F 55% 30.12 in 10.0 mi SSW 13.8 mph - N/A   Overcast
7:55 PM 30.2 °F 22.6 °F 15.8 °F 55% 30.12 in 10.0 mi SW 8.1 mph - N/A   Overcast
8:15 PM 28.4 °F 17.5 °F 19.4 °F 69% 30.13 in 3.0 mi SW 13.8 mph - N/A   Overcast
8:35 PM 28.4 °F 19.1 °F 21.2 °F 74% 30.14 in 1.0 mi SSW 10.4 mph - N/A   Overcast
8:55 PM 26.6 °F 18.2 °F 21.2 °F 80% 30.13 in 1.2 mi SW 8.1 mph - N/A   Overcast
9:15 PM 26.6 °F 19.1 °F 21.2 °F 80% 30.13 in 2.0 mi SSW 6.9 mph - N/A   Overcast
9:35 PM 26.6 °F 19.1 °F 23.0 °F 86% 30.12 in 2.5 mi SSW 6.9 mph - N/A   Overcast
9:55 PM 28.4 °F 20.4 °F 23.0 °F 80% 30.11 in 3.0 mi SSW 8.1 mph - N/A   Overcast
10:15 PM 28.4 °F 21.2 °F 24.8 °F 86% 30.10 in 7.0 mi SW 6.9 mph - N/A   Overcast
10:35 PM 28.4 °F 21.2 °F 24.8 °F 86% 30.09 in 4.0 mi SSW 6.9 mph - N/A   Overcast
10:55 PM 28.4 °F 22.2 °F 24.8 °F 86% 30.08 in 3.0 mi South 5.8 mph - N/A   Overcast
11:15 PM 28.4 °F 23.3 °F 24.8 °F 86% 30.07 in - South 4.6 mph - N/A   Unknown
11:35 PM 28.4 °F 22.2 °F 24.8 °F 86% 30.07 in 9.0 mi SSW 5.8 mph - N/A   Scattered Clouds
11:55 PM 28.4 °F - 24.8 °F 86% 30.06 in - Calm Calm - N/A   Unknown